Lexington Weather

Lexington, Massachusetts, USA

56°F
10/22/2020 8:31pm 
  • Lexington Conditions: Mostly cloudy
  • Temperature: 55.8°F / 13.2°C 
  • Dew Point: 54.7°FIncreased 0.4°Fsince last hour.
  • Relative Humidity: 96%Increased 1.0% since last hour.
  • Wind: Calm, 10-min avg: Calm, gust: None
  • Barometer: 30.22 in Steady
  • Visibility: 7 miles
  • Rain Today: 0.00 in
  •   
Southeast Middlesex County - Special Weather Statement
 - SEE ALL NEARBY ALERTS -

Regional Weather Roundup
for Boston / Norton, MA

        
000
ASUS41 KBOX 220704
RWRBOX

REGIONAL WEATHER ROUNDUP
NATIONAL WEATHER SERVICE BOSTON/NORTON MA
300 AM EDT THU OCT 22 2020

NOTE:  "FAIR" INDICATES FEW OR NO CLOUDS BELOW 12,000 FEET WITH NO 
SIGNIFICANT WEATHER AND/OR OBSTRUCTIONS TO VISIBILITY.

MAZALL-220800-
EASTERN MASSACHUSETTS
  
CITY           SKY/WX    TMP DP  RH WIND       PRES   REMARKS
BOSTON         NOT AVBL                                               
BEVERLY        NOT AVBL                                               
LAWRENCE       NOT AVBL                                               
BEDFORD        NOT AVBL                                               
BLUE HILL        N/A     64  63  96 SW9       30.20F                  
NORWOOD        NOT AVBL                                               
MARSHFIELD     NOT AVBL                                               
PLYMOUTH       NOT AVBL                                               
TAUNTON        NOT AVBL                                               
NEW BEDFORD    NOT AVBL                                               
$$

MAZALL-220800-
CAPE COD AND THE ISLANDS
  
CITY           SKY/WX    TMP DP  RH WIND       PRES   REMARKS
FALMOUTH       NOT AVBL                                               
HYANNIS        NOT AVBL                                               
CHATHAM        NOT AVBL                                               
NANTUCKET      NOT AVBL                                               
MARTHAS VNYRD  NOT AVBL                                               
$$
 
MAZALL-220800-
CENTRAL AND WESTERN MASSACHUSETTS
  
CITY           SKY/WX    TMP DP  RH WIND       PRES   REMARKS
WORCESTER      NOT AVBL                                               
FITCHBURG      NOT AVBL                                               
ORANGE         NOT AVBL                                               
SPRINGFIELD    CLOUDY    63  63 100 CALM      30.20F                  
WESTFIELD      NOT AVBL                                               
NORTH ADAMS    NOT AVBL                                               
$$
 
RIZALL-220800-
RHODE ISLAND
  
CITY           SKY/WX    TMP DP  RH WIND       PRES   REMARKS
PROVIDENCE     NOT AVBL                                               
NEWPORT        NOT AVBL                                               
WESTERLY       NOT AVBL                                               
$$
 
CTZALL-220800-
CONNECTICUT
  
CITY           SKY/WX    TMP DP  RH WIND       PRES   REMARKS
BRADLEY INTL   NOT AVBL                                               
HARTFORD       NOT AVBL                                               
BRIDGEPORT     NOT AVBL                                               
GROTON         NOT AVBL                                               
NEW HAVEN      NOT AVBL                                               
CHESTER        NOT AVBL                                               
MERIDEN        NOT AVBL                                               
WILLIMANTIC    NOT AVBL                                               
$$

MEZ002-015-021-024-NHZ003-005-008-011-012-014-VTZ005-008-220800-
NORTHERN NEW ENGLAND
  
CITY           SKY/WX    TMP DP  RH WIND       PRES   REMARKS
PORTLAND ME    NOT AVBL                                               
BANGOR ME      NOT AVBL                                               
CONCORD NH     NOT AVBL                                               
MANCHESTER NH  NOT AVBL                                               
NASHUA NH      NOT AVBL                                               
PORTSMOUTH NH  MOCLDY    53  53 100 CALM      30.16F FOG              
JAFFREY NH     NOT AVBL                                               
KEENE NH       NOT AVBL                                               
BURLINGTON VT  NOT AVBL                                               
MT. WASHINGTON LGT RAIN  37  37 100 W49         N/A  VSB 0   WCI  22  
$$

NYZ052-076-220800-
EASTERN NEW YORK
  
CITY           SKY/WX    TMP DP  RH WIND       PRES   REMARKS
ALBANY         NOT AVBL                                               
NEW YORK CITY  NOT AVBL                                               
$$
 
ANZALL-220800-
MARINE OBSERVATIONS
  
STATION/POSITION TIME  TEMP    WIND        PRES    VSBY  WAVE
                       AIR SEA DIR/SP/G                  HT/PER
                 (UTC) (F)     (DEG/KT/KT) (MB)    (MI)  (FT/S)
BOSTON BUOY      0650   61 58  200/  6/  8 1021.3F         3/11
BUZZARDS BAY     0600          250/ 11/ 12 1024.7F
NANTUCKET SOUND  0640          270/  6/  6   N/A
MASS BAY-STELLWA 0604   60 58  210/  6/  8 1021.9R  1 7/8  3/11
ISLE OF SHOALS   0600   63     240/ 11/ 11 1021.5R
S OF BLOCK IS    0626      63                N/A           3/ 9
$$

......................KEY.........................
  SKY/WX - SKY CONDITION/PRESENT WEATHER
  TMP    - TEMPERATURE IN FAHRENHEIT
  DWPT   - DEWPOINT IN FAHRENHEIT
  RH     - RELATIVE HUMIDITY IN PERCENT
  WIND   - DIRECTION AND SPEED IN MPH
  PRES   - MEAN SEA LEVEL PRESSURE IN INCHES OF HG
  WCI    - WIND CHILL INDEX
  VSB    - VISIBILITY IN MILES
  HX     - HEAT INDEX
  TC     - TEMPERATURE IN CELSIUS
  VRB    - VARIABLE WIND DIRECTION
  N/A    - NOT AVAILABLE
  
      

Other recent Regional Weather Roundups

Thu Oct 22, 8:04pm

Thu Oct 22, 7:05pm

Thu Oct 22, 6:04pm

Thu Oct 22, 5:04pm

Thu Oct 22, 4:05pm

Thu Oct 22, 3:04pm

Thu Oct 22, 2:05pm

Thu Oct 22, 1:04pm

Thu Oct 22, 12:04pm

Thu Oct 22, 11:04am

Thu Oct 22, 10:05am

Thu Oct 22, 9:04am

Thu Oct 22, 8:05am

Thu Oct 22, 7:04am

Thu Oct 22, 6:04am

Thu Oct 22, 5:04am

Thu Oct 22, 4:04am

Thu Oct 22, 2:04am

Thu Oct 22, 1:04am

Thu Oct 22, 12:04am

Wed Oct 21, 11:05pm

Wed Oct 21, 10:04pm

Wed Oct 21, 9:04pm

Wed Oct 21, 8:04pm

Wed Oct 21, 7:04pm

Wed Oct 21, 6:04pm

Wed Oct 21, 5:05pm

Wed Oct 21, 4:04pm

Wed Oct 21, 3:04pm

Wed Oct 21, 2:05pm

Wed Oct 21, 1:04pm

Wed Oct 21, 12:04pm

Wed Oct 21, 11:04am

Wed Oct 21, 10:04am

Wed Oct 21, 9:04am

Wed Oct 21, 8:04am

Wed Oct 21, 7:04am

Wed Oct 21, 6:04am

Wed Oct 21, 5:04am

Wed Oct 21, 4:04am

Wed Oct 21, 3:04am

Wed Oct 21, 2:04am

Wed Oct 21, 1:04am

Wed Oct 21, 12:04am

Tue Oct 20, 11:05pm

Tue Oct 20, 10:04pm

Tue Oct 20, 9:04pm

Tue Oct 20, 8:05pm

Tue Oct 20, 7:04pm

Tue Oct 20, 6:04pm

Tue Oct 20, 5:05pm

Tue Oct 20, 4:04pm

Tue Oct 20, 3:05pm

Tue Oct 20, 2:07pm

Tue Oct 20, 1:04pm

Tue Oct 20, 12:04pm

Tue Oct 20, 11:04am

Tue Oct 20, 10:05am

Tue Oct 20, 9:04am

Tue Oct 20, 8:04am

Tue Oct 20, 7:04am

Tue Oct 20, 6:04am

Tue Oct 20, 5:04am

Tue Oct 20, 4:04am

Tue Oct 20, 3:04am

Tue Oct 20, 2:04am

Tue Oct 20, 1:04am

Tue Oct 20, 12:04am

Mon Oct 19, 11:04pm

Mon Oct 19, 10:04pm

Mon Oct 19, 9:04pm

Mon Oct 19, 8:04pm

Mon Oct 19, 7:04pm

Mon Oct 19, 6:04pm

Mon Oct 19, 5:04pm

Mon Oct 19, 4:04pm

Mon Oct 19, 3:04pm

Mon Oct 19, 2:04pm

Mon Oct 19, 1:05pm

Mon Oct 19, 12:04pm

Mon Oct 19, 11:04am

Mon Oct 19, 10:04am

Mon Oct 19, 9:04am

Mon Oct 19, 8:04am

Mon Oct 19, 7:04am

Mon Oct 19, 6:04am

Mon Oct 19, 5:04am

Mon Oct 19, 4:04am

Mon Oct 19, 3:04am

Mon Oct 19, 2:04am

Mon Oct 19, 1:04am

Mon Oct 19, 12:05am

Sun Oct 18, 11:04pm

Sun Oct 18, 10:04pm

Sun Oct 18, 9:04pm

Sun Oct 18, 8:04pm

Sun Oct 18, 7:05pm

Sun Oct 18, 6:04pm

Sun Oct 18, 5:05pm

Sun Oct 18, 4:05pm

Sun Oct 18, 3:04pm

Sun Oct 18, 2:05pm

Sun Oct 18, 1:04pm

Sun Oct 18, 12:04pm

Sun Oct 18, 11:04am

Sun Oct 18, 10:04am

Sun Oct 18, 9:04am

Sun Oct 18, 8:04am

Sun Oct 18, 7:04am

Sun Oct 18, 6:04am

Sun Oct 18, 5:04am

Sun Oct 18, 4:04am

Sun Oct 18, 3:04am

Sun Oct 18, 2:04am

Sun Oct 18, 1:04am

Sun Oct 18, 12:04am

Sat Oct 17, 11:05pm

Sat Oct 17, 10:04pm

Sat Oct 17, 9:04pm

Sat Oct 17, 8:04pm

Sat Oct 17, 7:04pm

Sat Oct 17, 6:04pm

Sat Oct 17, 5:05pm

Sat Oct 17, 4:04pm

Sat Oct 17, 3:04pm

Sat Oct 17, 2:05pm

Sat Oct 17, 1:05pm

Sat Oct 17, 12:04pm

Sat Oct 17, 11:05am

Sat Oct 17, 10:04am

Sat Oct 17, 9:04am

Sat Oct 17, 8:04am

Sat Oct 17, 7:04am

Sat Oct 17, 6:04am

Sat Oct 17, 5:04am

Sat Oct 17, 4:04am

Sat Oct 17, 3:04am

Sat Oct 17, 2:04am

Sat Oct 17, 1:05am

Sat Oct 17, 12:04am

Fri Oct 16, 11:05pm

Fri Oct 16, 10:04pm

Fri Oct 16, 9:05pm

Fri Oct 16, 8:04pm

Fri Oct 16, 7:05pm

Fri Oct 16, 6:04pm

Fri Oct 16, 5:04pm

Fri Oct 16, 4:05pm

Fri Oct 16, 3:04pm

Fri Oct 16, 2:04pm

Fri Oct 16, 1:04pm

Fri Oct 16, 12:04pm

Fri Oct 16, 11:05am

Fri Oct 16, 10:04am

Fri Oct 16, 9:04am

Fri Oct 16, 8:04am

Fri Oct 16, 7:04am

Fri Oct 16, 6:04am

Fri Oct 16, 5:04am

Fri Oct 16, 4:04am

Fri Oct 16, 3:04am

Fri Oct 16, 2:04am

Fri Oct 16, 1:04am

Fri Oct 16, 12:04am

Thu Oct 15, 11:04pm

Thu Oct 15, 10:04pm

Thu Oct 15, 9:05pm

Meta data:

ID: 9efc8d2e-d649-4bb2-b318-2c529dc191ab
Link: https://api.weather.gov/products/9efc8d2e-d649-4bb2-b318-2c529dc191ab